This is the latest recevied weather packets stored in our database for station/object K0APR. If no packets are shown the sender has not sent any weather packets the latest 10 day(s).
| Time | Temp. | Humidity | Pressure | Rain* | Wind** | Luminosity | Snow |
|---|---|---|---|---|---|---|---|
| 1777923878 | 13.89° C | 44% | 1004.6 hPa | 0 mm | - | 670 W/m² | - |
| 1777923574 | 13.89° C | 43% | 1004.2 hPa | 0 mm | - | 509 W/m² | - |
| 1777923271 | 13.89° C | 43% | 1004.2 hPa | 0 mm | - | 335 W/m² | - |
| 1777922970 | 13.89° C | 42% | 1004.2 hPa | 0 mm | - | 468 W/m² | - |
| 1777922667 | 13.33° C | 42% | 1004.2 hPa | 0 mm | - | 532 W/m² | - |
| 1777922366 | 13.33° C | 42% | 1004.2 hPa | 0 mm | - | 263 W/m² | - |
| 1777922064 | 13.33° C | 41% | 1004.2 hPa | 0 mm | - | 301 W/m² | - |
| 1777921759 | 13.89° C | 41% | 1004.2 hPa | 0 mm | - | 265 W/m² | - |
| 1777921454 | 13.89° C | 40% | 1004.2 hPa | 0 mm | - | 432 W/m² | - |
| 1777921151 | 13.89° C | 40% | 1003.9 hPa | 0 mm | - | 249 W/m² | - |
| 1777920849 | 13.89° C | 40% | 1003.9 hPa | 0 mm | - | 243 W/m² | - |
| 1777920544 | 14.44° C | 40% | 1003.9 hPa | 0 mm | - | 321 W/m² | - |
| 1777920240 | 15° C | 39% | 1003.9 hPa | 0 mm | - | 449 W/m² | - |
| 1777919936 | 13.89° C | 42% | 1003.9 hPa | 0 mm | - | 659 W/m² | - |
| 1777919634 | 14.44° C | 39% | 1003.9 hPa | 0 mm | - | 707 W/m² | - |
| 1777919331 | 13.33° C | 42% | 1003.9 hPa | 0 mm | - | 729 W/m² | - |
| 1777919029 | 12.78° C | 42% | 1003.9 hPa | 0 mm | - | 159 W/m² | - |
| 1777918725 | 12.78° C | 42% | 1003.9 hPa | 0 mm | - | 188 W/m² | - |
| 1777918423 | 12.78° C | 43% | 1003.9 hPa | 0 mm | - | 230 W/m² | - |
| 1777918122 | 12.78° C | 44% | 1003.9 hPa | 0 mm | - | 304 W/m² | - |
| 1777917819 | 13.33° C | 44% | 1003.6 hPa | 0 mm | - | 281 W/m² | - |
| 1777917518 | 12.78° C | 44% | 1003.6 hPa | 0 mm | - | 502 W/m² | - |
| 1777917214 | 13.33° C | 43% | 1003.6 hPa | 0 mm | - | 445 W/m² | - |
| 1777916912 | 13.33° C | 43% | 1003.6 hPa | 0 mm | - | 470 W/m² | - |
| 1777916609 | 13.89° C | 42% | 1003.6 hPa | 0 mm | - | 835 W/m² | - |
* Rain latest hour (hover to see other rain measurements)
** Current wind speed in m/s (hover to see current wind gust speed)